Weather History for Raleigh-Durham Airport, NC

Change the Weather History Date:

Tuesday, October 15, 2013

  Actual Average Record
Temperature  
Mean Temperature 63 °F 61 °F  
Max Temperature 71 °F 73 °F 88 °F (1985)
Min Temperature 54 °F 50 °F 33 °F (2006)
Degree Days  
Heating Degree Days 2 5  
Month to date heating degree days 27 54  
Since 1 July heating degree days 38 75  
Cooling Degree Days 0 1  
Month to date cooling degree days 48 37  
Year to date cooling degree days 1543 1705  
Growing Degree Days 12 (Base 50)    
Moisture  
Dew Point 56 °F    
Average Humidity 81    
Maximum Humidity 100    
Minimum Humidity 61    
Precipitation  
Precipitation 0.00 in 0.10 in 4.04 in (1954)
Month to date precipitation 1.40 1.63  
Year to date precipitation 41.78 35.53  
Sea Level Pressure  
Sea Level Pressure 30.14 in    
Wind  
Wind Speed 5 mph (NNE)    
Max Wind Speed 13 mph    
Max Gust Speed 17 mph    
Visibility 8 miles    
Events      
T = Trace of Precipitation, MM = Missing Value Source: NWS Daily Summary

Daily Weather History Graph

Daily Weather History Graph

Search for Another Location

Airport:

Trip Planner

Search our weather history database for the weather conditions in past years. The results will help you decide how hot, cold, wet, or windy it might be!

Date:

Astronomy

Oct. 15, 2013 Rise Set
Actual Time 7:22 AM EDT 6:39 PM EDT
Civil Twilight 6:56 AM EDT 7:04 PM EDT
Nautical Twilight 6:26 AM EDT 7:34 PM EDT
Astronomical Twilight 5:56 AM EDT 8:04 PM EDT
Moon 4:38 PM EDT (10/15) 3:49 AM EDT (10/15)
Length of Visible Light 12h 08m
Length of Day
11h 17m
Waxing Gibbous, 87% of the Moon is Illuminated
Oct 15
Waxing Gibbous
Oct 18
Full
Oct 26
Last Quarter
Nov 3
New
Nov 10
First Quarter

Hourly Weather History & Observations

Time (EDT) Temp. Dew Point Humidity Pressure Visibility Wind Dir Wind Speed Gust Speed Precip Events Conditions
12:51 AM 55.9 °F 54.0 °F 93% 30.21 in 9.0 mi North 4.6 mph - N/A   Scattered Clouds
1:51 AM 55.9 °F 54.0 °F 93% 30.20 in 10.0 mi NNE 5.8 mph - N/A   Scattered Clouds
2:51 AM 55.0 °F 54.0 °F 96% 30.19 in 10.0 mi NNE 3.5 mph - N/A   Scattered Clouds
3:51 AM 54.0 °F 53.1 °F 97% 30.16 in 8.0 mi NNE 4.6 mph - N/A   Mostly Cloudy
4:51 AM 54.0 °F 53.1 °F 97% 30.17 in 8.0 mi NNE 4.6 mph - N/A   Mostly Cloudy
5:51 AM 54.0 °F 53.1 °F 97% 30.16 in 3.0 mi Calm Calm - N/A   Mostly Cloudy
6:10 AM 53.6 °F 53.6 °F 100% 30.17 in 1.5 mi North 4.6 mph - N/A   Mostly Cloudy
6:15 AM 53.6 °F 53.6 °F 100% 30.17 in 1.0 mi North 3.5 mph - N/A   Mostly Cloudy
6:29 AM 53.6 °F 53.6 °F 100% 30.17 in 0.5 mi Variable 3.5 mph - N/A   Overcast
6:51 AM 54.0 °F 53.1 °F 97% 30.17 in 0.5 mi Variable 4.6 mph - N/A   Overcast
7:42 AM 53.6 °F 53.6 °F 100% 30.18 in 1.0 mi North 3.5 mph - N/A   Overcast
7:51 AM 54.0 °F 53.1 °F 97% 30.19 in 1.0 mi Calm Calm - N/A   Overcast
8:08 AM 53.6 °F 53.6 °F 100% 30.19 in 2.0 mi NNE 6.9 mph - N/A   Mostly Cloudy
8:21 AM 55.4 °F 53.6 °F 94% 30.18 in 3.0 mi NNE 6.9 mph - N/A   Mostly Cloudy
8:51 AM 55.9 °F 54.0 °F 93% 30.19 in 3.0 mi NNE 5.8 mph - N/A   Mostly Cloudy
9:43 AM 57.2 °F 53.6 °F 88% 30.19 in 10.0 mi NNE 8.1 mph - N/A   Mostly Cloudy
9:51 AM 59.0 °F 55.0 °F 87% 30.18 in 10.0 mi NNE 8.1 mph - N/A   Mostly Cloudy
10:51 AM 63.0 °F 54.0 °F 72% 30.17 in 10.0 mi North 6.9 mph - N/A   Mostly Cloudy
11:51 AM 66.0 °F 55.0 °F 68% 30.16 in 10.0 mi Variable 6.9 mph - N/A   Mostly Cloudy
12:51 PM 69.1 °F 55.9 °F 63% 30.13 in 10.0 mi NNE 4.6 mph - N/A   Mostly Cloudy
1:32 PM 69.8 °F 57.2 °F 64% 30.11 in 10.0 mi NNE 8.1 mph 16.1 mph N/A   Mostly Cloudy
1:51 PM 70.0 °F 57.9 °F 65% 30.10 in 10.0 mi NE 10.4 mph - N/A   Mostly Cloudy
2:51 PM 70.0 °F 57.9 °F 65% 30.09 in 10.0 mi NE 5.8 mph - N/A   Mostly Cloudy
3:51 PM 70.0 °F 57.9 °F 65% 30.07 in 10.0 mi North 5.8 mph - N/A   Mostly Cloudy
4:05 PM 69.8 °F 57.2 °F 64% 30.08 in 10.0 mi NNE 5.8 mph - N/A   Mostly Cloudy
4:51 PM 71.1 °F 59.0 °F 66% 30.06 in 10.0 mi NNE 6.9 mph - N/A   Mostly Cloudy
5:35 PM 69.8 °F 59.0 °F 68% 30.08 in 10.0 mi NE 6.9 mph - N/A   Mostly Cloudy
5:51 PM 68.0 °F 59.0 °F 73% 30.08 in 10.0 mi NE 5.8 mph - N/A   Mostly Cloudy
6:51 PM 66.9 °F 59.0 °F 76% 30.08 in 10.0 mi ENE 5.8 mph - N/A   Overcast
7:51 PM 66.0 °F 59.0 °F 78% 30.09 in 10.0 mi ENE 5.8 mph - N/A   Overcast
8:00 PM 66.2 °F 59.0 °F 78% 30.09 in 10.0 mi ENE 4.6 mph - N/A   Overcast
8:51 PM 66.0 °F 60.1 °F 81% 30.09 in 10.0 mi ENE 6.9 mph - N/A   Overcast
9:45 PM 64.4 °F 60.8 °F 88% 30.09 in 10.0 mi NE 5.8 mph - N/A   Mostly Cloudy
9:51 PM 64.9 °F 60.1 °F 84% 30.09 in 10.0 mi NE 4.6 mph - N/A   Mostly Cloudy
10:02 PM 64.4 °F 60.8 °F 88% 30.10 in 10.0 mi NE 5.8 mph - N/A   Overcast
10:51 PM 64.9 °F 60.1 °F 84% 30.08 in 10.0 mi NNE 4.6 mph - N/A   Overcast
11:51 PM 64.0 °F 61.0 °F 90% 30.07 in 10.0 mi NE 4.6 mph - N/A   Mostly Cloudy